Location: Campan
(43.0159°N, 0.1785°E)
Time: 01:29:53
(UTC+00:00)

Daily predictions for brighter satellites

Satellite Brightness Start Highest point End
(mag) Time Altitude Azimuth Time Altitude Azimuth Time Altitude Azimuth
Cosmos 2237 Rocket 4.1 03:43:06 25° ENE 03:43:06 25° ENE 03:45:53 10° NE
BREEZE-M DEB (TANK) 4.4 03:55:50 66° N 03:55:50 66° N 04:00:43 10° E
Lacrosse 4 Rocket 4.2 04:04:26 16° ENE 04:04:26 16° ENE 04:05:47 10° NE
Gbstr 26 Del rocket 4.3 04:13:50 78° ESE 04:13:50 78° ESE 04:21:36 10° ENE
Cosmos 1464 Rocket 4.4 04:13:46 58° ESE 04:13:59 58° E 04:20:02 10° NNE
FALCON 9 R/B 4.0 04:24:54 17° S 04:24:54 17° S 04:26:09 10° SSE
Atlas Centaur 2 3.9 04:26:50 30° S 04:26:54 30° S 04:33:33 10° ESE
ATLAS CENTAUR R/B 3.9 04:31:45 15° NE 04:31:45 15° NE 04:32:32 10° NE
METEOR-M 4.3 04:29:28 10° NNE 04:34:34 68° E 04:34:34 68° E
Lacrosse 5 rocket 3.8 04:40:11 13° SE 04:40:11 13° SE 04:40:40 10° SE
Cosmos 372 Rocket 4.2 04:40:33 65° NE 04:40:45 66° ENE 04:45:56 10° SSE
USA 307 4.2 04:44:43 38° ENE 04:44:43 38° ENE 04:47:26 10° NE
USA 215 4.1 04:37:32 10° NE 04:43:15 34° NNW 04:43:15 34° NNW
NOSS 0 Rocket 4.3 04:45:41 49° NNW 04:45:41 49° NNW 04:50:29 10° NNE
ADEOS 3.7 04:40:00 10° NNE 04:45:13 70° ESE 04:47:41 32° S
USA 305 3.9 04:50:49 43° NE 04:50:49 43° NE 04:53:44 10° NE
Nadezhda 4 Rocket 4.0 04:43:31 10° N 04:49:40 74° E 04:55:46 10° SSE
USA 308 3.7 04:53:17 49° NE 04:53:17 49° NE 04:56:29 10° NE
Cosmos 1400 Rocket 3.6 04:53:19 52° ENE 04:53:19 52° ENE 04:57:03 10° NNE
SL-4 R/B 3.4 04:55:30 32° NE 04:55:30 32° NE 04:57:47 10° NE
Cosmos 2034 Rocket 4.0 04:49:09 10° S 04:55:31 86° E 05:01:54 10° N
Cosmos 1943 Rocket 3.8 04:51:10 10° N 04:56:09 30° NE 05:01:07 10° ESE
Meteor 1-16 Rocket 4.4 04:50:36 10° S 04:56:29 77° E 05:02:25 10° NNE
Cosmos 1570 Rocket 4.1 04:57:36 61° NNW 04:57:36 61° NNW 05:02:05 10° NNE
Cosmos 540 Rocket 4.5 05:01:40 32° N 05:01:40 32° N 05:04:37 10° N
CZ-4B R/B 3.9 04:56:33 10° SSE 04:57:25 17° SSE 04:57:25 17° SSE
USA 306 3.3 05:02:36 55° NE 05:02:36 55° NE 05:06:00 10° NE
NOSS 3-2 (A) 3.4 05:00:28 31° SSW 05:03:18 73° ESE 05:09:38 10° NE
SJ-12 4.1 04:59:16 10° NNE 05:03:25 72° E 05:04:12 55° SSE
Cosmos 1814 Rocket 3.8 05:03:50 68° NW 05:03:50 68° NW 05:08:38 10° NNE
Cosmos 2369 Rocket 4.3 05:02:00 10° N 05:06:21 23° NE 05:10:42 10° ESE
COSMO-SKYMED 1 2.6 05:06:28 10° SSE 05:10:48 81° ENE 05:12:33 36° N
CZ-4B R/B 3.4 05:08:51 10° NNE 05:12:28 54° E 05:16:12 10° S
CZ-4B R/B 4.3 05:09:55 10° N 05:13:34 54° NNW 05:13:34 54° NNW
USA 267 3.9 05:10:26 10° S 05:16:09 32° SW 05:16:23 32° WSW
SL-16 R/B 2.3 05:10:55 10° SSW 05:16:32 75° ESE 05:22:13 10° NNE
Cosmos 2278 Rocket 3.3 05:18:36 27° SW 05:18:36 27° SW 05:21:44 10° SSW
NOSS 3-2 (C) 4.0 05:11:38 10° SSW 05:17:00 54° ESE 05:23:07 10° NE
CZ-2C R/B 2.8 05:19:17 25° SSW 05:19:32 25° S 05:23:00 10° SE
ERBS 4.4 05:18:11 15° S 05:20:04 25° SE 05:22:48 10° ENE
Cosmos 972 Rocket 4.4 05:14:41 10° SSW 05:21:04 81° ESE 05:26:45 10° NNE
Cosmos 2219 Rocket 4.2 05:23:36 12° NNW 05:23:36 12° NNW 05:24:31 10° N
ERS-2 2.2 05:19:55 10° SSE 05:23:33 72° ENE 05:25:10 31° N
CENTAUR R/B 2.8 05:18:30 10° SSW 05:24:11 66° ESE 05:30:57 10° NE
Cosmos 2237 Rocket 2.8 05:24:59 36° NW 05:24:59 36° NW 05:30:02 10° N
Cosmos 2208 Rocket 4.2 05:23:25 41° WSW 05:24:48 52° WNW 05:30:06 10° N
ATLAS 5 CENTAUR R/B 2.4 05:25:47 37° SSW 05:25:47 37° SSW 05:30:10 10° SSE
Cosmos 2026 Rocket 4.4 05:19:03 10° N 05:25:24 67° E 05:31:44 10° SSE
H-2A R/B 3.0 05:25:45 10° NNE 05:29:28 67° ESE 05:33:12 10° S
FALCON 9 DEB 3.3 05:30:00 55° S 05:30:18 59° SE 05:33:24 10° ENE
Meteor PRIRODA 3.4 05:30:30 10° N 05:34:08 84° WNW 05:37:45 10° SSW
Cosmos 1626 Rocket 3.9 05:37:41 40° WNW 05:38:14 42° W 05:42:25 10° SSW
Cosmos 1703 3.6 05:39:02 41° WSW 05:39:02 41° WSW 05:42:20 10° SSW
FALCON 9 DEB 2.8 05:38:25 66° SW 05:38:47 84° SE 05:41:54 10° NE
Lacrosse 4 Rocket 2.0 05:40:47 36° NW 05:40:50 36° NW 05:44:53 10° NNE
Cosmos 1300 2.7 05:40:43 10° S 05:44:30 81° E 05:48:20 10° N
Meteor 1-11 4.1 05:40:34 10° NNW 05:46:11 83° W 05:51:46 10° S
SAR-Lupe-4 3.4 05:43:34 10° S 05:47:08 77° WSW 05:50:19 13° NNW
Cosmos 1315 Rocket 2.8 05:45:09 10° S 05:49:03 78° E 05:52:58 10° NNE
[s.n.47389] 4.0 05:48:24 18° SSW 05:49:51 34° SE 05:52:15 10° ENE
[s.n.47399] 4.0 05:48:25 18° SSW 05:49:53 34° SE 05:52:17 10° ENE
[s.n.47393] 4.0 05:48:28 18° SSW 05:49:55 34° SE 05:52:19 10° ENE
[s.n.47353] 4.0 05:48:32 18° SSW 05:49:59 34° SE 05:52:24 10° ENE
[s.n.47355] 4.0 05:48:35 18° SSW 05:50:03 34° SE 05:52:28 10° ENE
[s.n.47365] 4.0 05:48:37 18° SSW 05:50:06 34° SE 05:52:30 10° ENE
[s.n.47383] 4.0 05:48:43 18° SSW 05:50:11 34° SE 05:52:35 10° ENE
[s.n.47400] 4.0 05:48:40 18° SSW 05:50:12 35° SE 05:52:39 10° ENE
[s.n.47378] 3.9 05:48:48 18° SSW 05:50:16 34° SE 05:52:41 10° ENE
[s.n.47395] 3.9 05:48:51 18° SSW 05:50:19 34° SE 05:52:44 10° ENE
[s.n.47379] 3.9 05:48:57 18° SSW 05:50:26 34° SE 05:52:50 10° ENE
[s.n.47370] 3.9 05:48:57 18° SSW 05:50:26 34° SE 05:52:50 10° ENE
[s.n.47351] 3.9 05:48:57 18° SSW 05:50:29 35° SE 05:52:56 10° ENE
[s.n.47394] 3.9 05:49:03 18° SSW 05:50:32 35° SE 05:52:57 10° ENE
[s.n.47354] 3.9 05:49:07 18° SSW 05:50:36 35° SE 05:53:01 10° ENE
[s.n.47360] 3.9 05:49:08 18° SSW 05:50:38 35° SE 05:53:03 10° ENE
[s.n.47369] 3.9 05:49:13 18° SSW 05:50:43 35° SE 05:53:08 10° ENE
[s.n.47406] 3.9 05:49:15 18° SSW 05:50:45 35° SE 05:53:11 10° ENE
[s.n.47384] 3.9 05:49:18 18° SSW 05:50:49 35° SE 05:53:14 10° ENE
[s.n.47356] 3.9 05:49:21 18° SSW 05:50:51 35° SE 05:53:17 10° ENE
[s.n.47407] 3.9 05:49:24 18° SSW 05:50:55 35° SE 05:53:20 10° ENE
[s.n.47385] 3.9 05:49:22 17° SSW 05:50:57 35° SE 05:53:25 10° ENE
[s.n.47358] 3.9 05:49:31 18° SSW 05:51:02 35° SE 05:53:27 10° ENE
[s.n.47398] 3.9 05:49:33 18° SSW 05:51:04 35° SE 05:53:30 10° ENE
[s.n.47361] 3.9 05:49:37 18° SSW 05:51:08 35° SE 05:53:34 10° ENE
[s.n.47392] 3.9 05:49:39 18° SSW 05:51:10 35° SE 05:53:36 10° ENE
[s.n.47382] 3.9 05:49:43 18° SSW 05:51:14 35° SE 05:53:40 10° ENE
[s.n.47359] 3.9 05:49:43 18° SSW 05:51:17 36° SE 05:53:43 10° ENE
[s.n.47401] 3.9 05:49:50 18° SSW 05:51:22 35° SE 05:53:46 10° ENE
[s.n.47380] 3.9 05:49:47 17° SSW 05:51:23 36° SE 05:53:50 10° ENE
[s.n.47386] 3.9 05:49:57 18° SSW 05:51:28 35° SE 05:53:53 10° ENE
[s.n.47408] 3.9 05:49:55 17° SSW 05:51:30 36° SE 05:53:58 10° ENE
[s.n.47396] 3.9 05:50:02 18° SSW 05:51:34 36° SE 05:53:59 10° ENE
[s.n.47391] 3.9 05:50:04 18° SSW 05:51:37 36° SE 05:54:02 10° ENE
[s.n.47402] 3.9 05:50:08 18° SSW 05:51:39 36° SE 05:54:05 10° ENE
[s.n.47404] 3.9 05:50:11 18° SSW 05:51:43 36° SE 05:54:09 10° ENE
[s.n.47403] 3.9 05:50:14 18° SSW 05:51:47 36° SE 05:54:12 10° ENE
[s.n.47381] 3.9 05:50:17 18° SSW 05:51:50 36° SE 05:54:15 10° ENE
deb Chang Zheng 4 3.7 05:47:50 10° N 05:51:53 45° WNW 05:55:54 10° SW
[s.n.47372] 3.9 05:50:21 18° SSW 05:51:54 36° SE 05:54:19 10° ENE
[s.n.47405] 3.9 05:50:23 18° SSW 05:51:56 36° SE 05:54:22 10° ENE
[s.n.47368] 3.9 05:50:28 18° SSW 05:52:01 36° SE 05:54:27 10° ENE
[s.n.47350] 3.8 05:50:31 18° SSW 05:52:03 36° SE 05:54:29 10° ENE
[s.n.47349] 3.9 05:50:27 17° SSW 05:52:06 37° SE 05:54:34 10° ENE
[s.n.47367] 3.8 05:50:35 18° SSW 05:52:08 36° SE 05:54:35 10° ENE
[s.n.47373] 3.9 05:50:34 17° SSW 05:52:11 37° SE 05:54:40 10° ENE
[s.n.47377] 3.9 05:50:37 17° SSW 05:52:15 37° SE 05:54:44 10° ENE
[s.n.47371] 3.8 05:50:39 17° SSW 05:52:17 37° SE 05:54:46 10° ENE
[s.n.47362] 3.8 05:50:42 17° SSW 05:52:20 37° SE 05:54:49 10° ENE
[s.n.47363] 3.8 05:50:46 17° SSW 05:52:24 37° SE 05:54:53 10° ENE
[s.n.47374] 3.8 05:50:52 17° SSW 05:52:28 37° SE 05:54:55 10° ENE
[s.n.47357] 3.8 05:50:57 17° SSW 05:52:32 37° SE 05:54:59 10° ENE
[s.n.47390] 3.8 05:51:01 17° SSW 05:52:35 37° SE 05:55:02 10° ENE
[s.n.47387] 3.8 05:51:03 17° SSW 05:52:37 37° SE 05:55:05 10° ENE
[s.n.47375] 3.8 05:51:04 17° SSW 05:52:39 37° SE 05:55:05 10° ENE
[s.n.47376] 3.8 05:51:02 17° SSW 05:52:41 37° SE 05:55:10 10° ENE
Cosmos 2195 Rocket 4.4 05:46:31 10° NNW 05:52:43 66° W 05:58:47 10° S
[s.n.47366] 3.8 05:51:13 17° SSW 05:52:48 37° SE 05:55:16 10° ENE
[s.n.47352] 3.8 05:51:15 17° SSW 05:52:51 37° SE 05:55:19 10° ENE
[s.n.47364] 3.8 05:51:18 17° SSW 05:52:55 37° SE 05:55:23 10° ENE
[s.n.47388] 3.8 05:51:21 17° SSW 05:52:58 37° SE 05:55:26 10° ENE
[s.n.47397] 3.8 05:51:28 17° SSW 05:53:03 37° SE 05:55:30 10° ENE
Cosmos 2297 3.7 05:50:12 11° NNW 05:55:39 64° WSW 06:01:19 10° S
MOS 1 Rocket 3.5 05:51:43 10° S 05:56:26 47° W 06:00:53 10° NNW
SKYMED 2 4.3 05:55:09 10° SSW 05:58:58 30° W 06:01:10 20° NW
USA 238 DEB 3.6 05:52:32 10° SW 05:59:02 62° NW 06:05:52 10° NNE
USA 238 3.6 05:52:38 10° SW 05:59:08 62° NW 06:05:58 10° NNE
Cosmos 1346 Rocket 2.7 05:55:13 10° NNW 05:59:11 63° W 06:03:07 10° S
Cosmos 836 Rocket 4.4 05:53:59 10° SSW 05:59:14 78° WNW 06:04:30 10° NNE
Cosmos 1428 Rocket 4.4 05:55:48 10° NNW 06:02:01 67° W 06:08:09 10° S
SAR-Lupe-1 4.3 06:00:05 10° S 06:03:31 47° W 06:07:00 10° NNW
Cosmos 1758 Rocket 3.6 05:59:42 10° NNW 06:04:06 55° W 06:08:26 10° S
Cosmos 1689 Rocket 2.4 06:03:06 10° S 06:05:51 40° W 06:07:24 21° NW
ATLAS CENTAUR R/B 2.6 06:07:56 19° NW 06:08:05 19° NW 06:10:46 10° N
BREEZE M DEB (TANK) 1.5 06:11:50 21° WSW 06:13:12 74° NNW 06:17:21 10° ENE
Atlas Centaur 2 4.4 06:09:51 10° WSW 06:15:37 24° SSW 06:21:55 10° SE
SL-19 R/B 4.3 06:12:14 10° NNE 06:15:50 69° ESE 06:18:59 10° S
Cosmos 2084 Rocket 4.4 06:13:52 18° WNW 06:16:25 31° WSW 06:20:24 10° S
Cosmos 1726 Rocket 3.4 06:12:31 10° SSW 06:16:49 75° W 06:21:09 10° N
Cosmos 2058 Rocket 3.4 06:14:29 10° S 06:18:51 69° E 06:23:16 10° NNE
MOS 1-B 4.5 06:13:09 10° NNE 06:18:57 82° ESE 06:24:44 10° SSW
Cosmos 1892 3.2 06:15:49 10° N 06:19:38 62° E 06:23:27 10° SSE
YAOGAN 6 3.0 06:16:11 10° N 06:19:42 42° WNW 06:23:11 10° SW
Cosmos 1603 4.2 06:14:14 10° S 06:19:45 64° ESE 06:25:21 10° NNE
Spot 2 3.9 06:16:28 10° NNE 06:20:31 87° WNW 06:24:40 10° SSW
FALCON 9 DEB 3.4 06:19:09 18° W 06:21:07 38° NNW 06:24:03 10° NE
GEOS 3 Rocket 3.7 06:16:15 10° SSE 06:21:36 78° SW 06:27:02 10° NW
USA 307 4.0 06:20:53 15° WNW 06:23:33 28° NNW 06:27:14 10° NE
Cosmos 2279 Rocket 4.0 06:22:37 10° SSW 06:28:48 64° W 06:35:03 10° N
USA 305 4.1 06:26:57 13° WNW 06:29:53 26° NNW 06:33:29 10° NE
FALCON 9 DEB 3.5 06:27:20 13° W 06:29:54 37° NNW 06:32:51 10° NE
CZ-4B DEB 4.2 06:24:25 10° N 06:29:58 69° WNW 06:35:27 10° SSW
In-Cosmos 22 Rocket 4.1 06:24:39 10° NNW 06:30:07 84° W 06:35:26 10° S
PSLV R/B 4.2 06:26:44 10° N 06:30:33 43° WNW 06:34:25 10° SW
Cosmos 2292 Rocket 2.8 06:28:41 10° NNW 06:31:44 70° W 06:35:21 10° S
USA 308 4.1 06:29:28 12° WNW 06:32:37 26° NNW 06:36:16 10° NE
Cosmos 1408 3.0 06:29:47 10° N 06:33:22 63° E 06:36:57 10° SSE
SL-4 R/B 3.2 06:31:05 12° WNW 06:33:59 26° N 06:37:31 10° NE
Cosmos 2098 Rocket 4.0 06:30:51 10° NNW 06:35:46 34° W 06:39:44 10° SSW
Okean O Rocket 1.8 06:31:31 10° NNE 06:35:54 77° ESE 06:40:13 10° S
Cosmos 1825 Rocket 4.2 06:32:33 10° NNW 06:36:36 34° W 06:40:37 10° SSW
SMAP 3.0 06:33:20 10° N 06:38:00 73° WNW 06:42:37 10° SSW
Cosmos 2263 4.4 06:33:35 10° NNW 06:39:18 80° ENE 06:45:00 10° SSE
Cosmos 1943 Rocket 2.6 06:34:41 10° NW 06:40:02 43° WSW 06:45:20 10° S
CZ-2C R/B 2.6 06:35:47 10° S 06:40:59 65° WSW 06:46:21 10° NNW
H-2A R/B 2.7 06:37:42 10° N 06:42:12 64° WNW 06:46:37 10° SSW
USA 306 4.2 06:38:48 10° WNW 06:42:16 24° NNW 06:45:44 10° NE
Cosmos 1939 Rocket 3.3 06:40:57 10° NNE 06:44:49 64° E 06:48:39 10° S
Envisat 3.7 06:42:02 10° N 06:46:32 32° WNW 06:51:00 10° SW
Cosmos 773 Rocket 4.0 06:42:32 10° SSW 06:47:47 86° WNW 06:53:02 10° NNE
Cosmos 2369 Rocket 2.3 06:45:18 10° NNW 06:50:49 61° WSW 06:56:18 10° S
Meteor 2-10 Rocket 3.8 06:47:17 10° SSW 06:53:05 69° WNW 06:58:51 10° N
